Location: Arac
(42.8991°N, 1.2321°E)
Time: 01:47:02
(UTC+00:00)

Daily predictions for brighter satellites

Satellite Brightness Start Highest point End
(mag) Time Altitude Azimuth Time Altitude Azimuth Time Altitude Azimuth
Cosmos 2082 Rocket 3.6 03:49:32 34° E 03:49:32 34° E 03:54:23 10° NE
COSMOS 2455 4.1 03:58:09 33° NE 03:58:48 34° NE 04:04:13 10° ESE
Cosmos 1980 Rocket 2.7 04:14:13 53° ESE 04:14:13 53° ESE 04:18:35 10° SSE
Cosmos 2279 Rocket 4.1 04:14:29 72° SE 04:14:29 72° SE 04:20:12 10° SSE
Cosmos 2098 Rocket 4.0 04:15:57 65° E 04:15:57 65° E 04:21:30 10° SSE
Tiangong 1.2 04:27:21 13° ESE 04:27:21 13° ESE 04:27:49 10° ESE
Cosmos 967 Rocket 4.4 04:24:15 76° N 04:24:41 82° ENE 04:31:09 10° SE
Cosmos 372 Rocket 4.4 04:33:38 52° NNE 04:34:21 57° ENE 04:39:19 10° SE
Cosmos 2333 Rocket 4.3 04:33:56 11° N 04:38:07 22° NE 04:42:30 10° E
Cosmos 1606 Rocket 4.4 04:43:12 34° NNE 04:44:45 49° ENE 04:49:01 10° SSE
Cosmos 2142 Rocket 4.3 04:47:06 31° NNW 04:50:15 75° W 04:56:26 10° S
Helios 1A Rocket 4.3 04:51:49 10° SE 04:54:43 28° ENE 04:55:46 23° NE
USA 234 4.5 04:50:57 10° NE 04:56:07 26° N 04:57:47 23° NNW
SL-4 R/B 3.9 05:03:15 15° NNE 05:03:15 15° NNE 05:04:16 10° NE
Cosmos 2322 Rocket 4.0 05:02:19 10° N 05:07:04 26° NE 05:11:47 10° ESE
Meteor 2-3 Rocket 4.0 05:03:32 10° S 05:09:14 70° E 05:14:55 10° NNE
Cosmos 1726 Rocket 3.7 05:08:07 19° N 05:11:12 69° E 05:15:23 10° SSE
Cosmos 489 Rocket 4.4 05:06:55 10° SSW 05:13:15 82° WNW 05:19:33 10° NNE
Nadezhda 4 Rocket 3.9 05:07:56 10° SSW 05:14:13 71° W 05:20:31 10° N
Cosmos 1428 Rocket 4.4 05:09:07 10° S 05:15:19 83° W 05:21:38 10° N
CZ-4 R/B 3.6 05:12:20 10° NNE 05:16:59 83° WNW 05:21:35 10° SSW
NOSS 2-1 (D) 3.3 05:17:47 55° NW 05:18:37 87° SW 05:23:33 10° SSE
SL-24 R/B - RUBIN 2 4.4 05:19:22 31° SW 05:19:22 31° SW 05:22:38 10° S
Cosmos 2237 4.1 05:15:45 23° NNW 05:19:24 89° WSW 05:25:06 10° SSE
Cosmos 841 Rocket 3.4 05:16:08 10° SSW 05:21:18 64° WNW 05:26:32 10° NNE
USA 59 Rocket -0.2 05:20:26 53° NW 05:21:18 75° SW 05:26:20 10° SSE
COSMOS 2406 3.1 05:16:09 10° SSW 05:21:49 80° WNW 05:27:31 10° NNE
CZ-3 R/B 4.2 05:14:25 19° WSW 05:22:22 25° SW 05:29:30 10° S
NOSS 2-1 (E) 3.3 05:25:12 41° NNW 05:26:29 87° NE 05:31:23 10° SE
Cosmos 1933 3.6 05:27:10 42° WSW 05:27:10 42° WSW 05:30:19 10° SSW
NOSS 3-1 (C) 4.1 05:21:26 20° NW 05:26:56 89° NE 05:36:00 10° SE
Cosmos 1892 Rocket 3.4 05:23:56 10° S 05:28:17 87° W 05:32:42 10° N
Cosmos 2195 Rocket 4.4 05:22:24 10° S 05:28:39 82° W 05:35:00 10° N
ATLAS CENTAUR Rocket 4.4 05:27:47 10° SW 05:32:13 27° SSE 05:44:12 10° ESE
Cosmos 2082 Rocket 2.7 05:31:29 29° W 05:33:21 36° WNW 05:38:31 10° N
SL-16 R/B 2.5 05:28:40 12° NNW 05:33:59 68° ENE 05:39:37 10° SSE
IRS-1D 3.8 05:39:23 10° N 05:44:05 41° WNW 05:48:49 10° SW
COSMOS 2455 3.2 05:41:19 22° NW 05:44:51 46° WSW 05:50:31 10° S
Cosmos 1898 Rocket 3.9 05:42:41 22° NW 05:45:32 41° WSW 05:50:26 10° S
NOSS 2-1 (C) 3.7 05:44:49 29° WNW 05:46:29 51° WSW 05:51:22 10° SSE
Cosmos 405 Rocket 4.2 05:44:07 10° SSE 05:47:03 32° E 05:50:01 10° NNE
Meteor 2-20 4.4 05:41:01 10° NNW 05:47:08 77° W 05:53:11 10° S
Cosmos-2242 2.9 05:51:20 10° N 05:55:35 88° W 05:59:46 10° S
COSMO-SKYMED 1 2.8 05:51:43 10° S 05:55:37 42° W 05:59:10 12° NNW
Cosmos 1980 Rocket 3.6 05:56:02 17° W 05:56:20 17° W 05:59:45 10° SW
Cosmos 2278 3.7 05:51:25 10° NNW 05:57:06 89° NE 06:02:45 10° SSE
Cosmos 1627 Rocket 4.5 05:55:13 10° SSW 06:01:12 57° W 06:07:16 10° N
Tiangong -0.5 05:59:42 17° WSW 06:01:20 26° SSW 06:04:05 10° SE
Cosmos 1484 Rocket 2.4 05:59:21 10° N 06:02:42 56° WNW 06:06:01 10° SSW
Cosmos 2058 Rocket 3.0 05:58:20 10° NNW 06:02:45 68° W 06:07:07 10° S
Meteor 2-2 Rocket 4.2 06:00:25 10° NNW 06:06:05 73° W 06:11:51 10° S
Okean 1 2.9 06:04:54 10° NNW 06:08:27 71° W 06:11:59 10° S
Meteor 2-20 Rocket 4.2 06:03:33 10° NNW 06:09:18 72° W 06:14:57 10° S
Cosmos 1937 Rocket 4.2 06:06:02 13° NW 06:10:03 33° W 06:14:36 10° SSW
ATLAS 2AS CENTAUR R/B 4.0 06:06:35 10° S 06:13:16 46° ESE 06:19:48 10° NE
SL-08 ROCKET BODY 4.5 06:08:49 10° S 06:14:40 83° E 06:20:32 10° N
ARIANE 5 R/B 3.6 06:09:53 10° NNE 06:14:58 51° E 06:20:02 10° S
Cosmos 2285 Rocket 4.3 06:08:49 10° NNW 06:15:12 72° ENE 06:21:36 10° SSE
IRIDIUM 104 4.3 06:11:22 10° S 06:16:34 83° W 06:21:49 10° N
Cosmos 2333 Rocket 2.3 06:17:12 10° NNW 06:22:56 67° WSW 06:28:37 10° SSE
Cosmos 1833 4.4 06:18:35 10° SSW 06:24:11 77° ESE 06:29:53 10° NNE
SAR-Lupe-4 4.1 06:21:35 10° NNE 06:25:07 64° ESE 06:28:38 10° S
IRIDIUM 114 4.3 06:20:32 10° S 06:25:43 68° W 06:30:57 10° N
SMAP 3.1 06:21:29 10° NNE 06:26:10 87° WNW 06:30:49 10° SSW
Helios 1A Rocket 4.2 06:25:18 10° SW 06:27:21 15° W 06:29:20 10° WNW
Cosmos 2360 Rocket 2.2 06:23:49 10° NNW 06:29:28 87° WSW 06:35:05 10° SSE
Landsat 7 3.8 06:27:27 10° NNE 06:32:08 86° ESE 06:36:47 10° SSW
Cosmos 1814 Rocket 4.0 06:27:21 10° SSW 06:32:30 62° WNW 06:37:45 10° NNE
SAR-Lupe-1 4.5 06:29:21 10° NNE 06:32:57 68° ESE 06:36:31 10° S
NOSS 3-1 (A) 4.2 06:26:07 10° NW 06:33:32 77° WSW 06:42:38 10° SSE
CBERS-1 4.2 06:29:54 10° N 06:34:48 48° WNW 06:39:40 10° SW
IRIDIUM 103 4.4 06:29:48 10° SSW 06:34:54 56° W 06:40:03 10° N
IGS 5A 4.0 06:31:59 10° N 06:35:34 32° WNW 06:39:09 10° SW
BREEZE-M DEB (TANK) 2.3 06:34:38 10° NW 06:36:23 46° NNE 06:39:11 10° ESE
USA 234 4.3 06:32:10 10° E 06:37:56 34° NNE 06:43:43 10° NW
Cosmos 1758 Rocket 3.7 06:34:30 10° SSW 06:38:51 56° W 06:43:12 10° N
Cosmos 1733 2.7 06:38:19 10° SW 06:39:50 21° WNW 06:41:21 10° NNW
Cosmos 1743 2.2 06:36:48 10° SSW 06:40:00 64° W 06:43:14 10° N
SL-4 R/B 2.7 06:37:25 10° NW 06:40:19 30° NNE 06:43:10 10° E
IRS-1C 4.2 06:38:48 10° NNE 06:44:09 88° ESE 06:49:29 10° SSW
Meteor 2-6 Rocket 4.5 06:40:31 10° NNW 06:46:23 61° W 06:52:12 10° S
